[[{"header":{"parameterUnit":"m.s-1","parameterCategory":1,"la1":30.2991,"la2":30.254,"lo1":-89.0895,"lo2":-89.0444,"dy":0.0017,"dx":0.0017,"nx":28,"ny":28,"refTime":"2023-10-07T03:00:00:Z","depth":0,"parameterNumber":2,"parameterNumberName":"U-component_of_WINDS"},"data":[0,0,0,0,0,0,0,0,0,0,0,0,0,0,0,0,0,0,0,0,0,0,0,0,0,0,0,0,0,0,0,0,0,0,0,0,0,0,0,0,0,0,0,0,0,0,0,0,0,0,0,0,0,0,0,0,0,0,-1.7686,-1.7687,0,-1.7738,-1.7739,-1.7739,-1.7656,-1.7653,-1.765,-1.7647,-1.7703,-1.7707,-1.7711,0,0,0,0,0,0,0,0,0,0,0,0,0,-1.7515,-1.7519,-1.7686,-1.7687,-1.7687,-1.7738,-1.7739,-1.774,-1.7656,-1.7653,-1.7649,-1.7646,-1.7702,-1.7707,-1.7712,0,0,0,0,0,0,0,0,0,0,0,0,0,-1.7581,-1.752,-1.7686,-1.7652,-1.7649,-1.7738,-1.7739,-1.774,-1.7657,-1.7652,-1.7648,-1.7644,-1.77,-1.7706,-1.7713,-1.7838,0,0,-1.7732,-1.7734,0,0,0,0,0,0,0,0,-1.7577,-1.7587,-1.7656,-1.7654,-1.7651,-1.7686,-1.7699,-1.7773,-1.7658,-1.7654,-1.7647,-1.7642,-1.7701,-1.7707,-1.7726,-1.7841,-1.7843,-1.7732,-1.7736,-1.7739,-1.7741,0,0,0,0,0,0,0,-1.7573,-1.7584,-1.7707,-1.7657,-1.7654,-1.7634,-1.7639,-1.7713,-1.7701,-1.7654,-1.7648,-1.7655,-1.7699,-1.7721,-1.7727,-1.7844,-1.7732,-1.7738,-1.7742,-1.7744,-1.8063,-1.8068,0,0,0,0,0,0,-1.7572,-1.7581,-1.7705,-1.7708,-1.7603,-1.7641,-1.7646,-1.7679,-1.77,-1.7699,-1.7659,-1.7651,-1.7712,-1.772,-1.7729,-1.7878,-1.7739,-1.7745,-1.7748,-1.8058,-1.8064,-1.8069,0,0,0,0,0,0,-1.7569,-1.7584,-1.7703,-1.7643,-1.7657,-1.7648,-1.7687,-1.7683,-1.7704,-1.7704,-1.7702,-1.7683,-1.7709,-1.772,-1.7811,-1.7878,-1.7747,-1.7753,-1.8053,-1.806,-1.8067,-1.8176,0,0,0,0,0,0,-1.7564,-1.7583,-1.7631,-1.7645,-1.766,-1.7785,-1.7691,-1.7687,-1.7715,-1.7705,-1.7726,-1.7725,-1.7706,-1.7802,-1.7818,-1.7885,-1.7758,-1.8047,-1.8056,-1.8064,-1.8167,-1.8186,-1.8203,0,0,0,0,0,-1.7558,-1.766,-1.7634,-1.7649,-1.7719,-1.7789,-1.7798,-1.7773,-1.7721,-1.7769,-1.7768,-1.7725,-1.7868,-1.7812,-1.7829,-1.7899,-1.8043,-1.8053,-1.8064,-1.8159,-1.8182,-1.8203,0,0,0,0,0,0,-1.7656,-1.7662,-1.7632,-1.7742,-1.7765,-1.7774,-1.7835,-1.7799,-1.7839,-1.7829,-1.7797,-1.7802,-1.79,-1.7908,-1.7846,-1.8021,-1.7946,-1.7961,-1.8013,-1.8036,-1.8053,-1.8051,-1.7763,0,0,0,0,0,-1.769,-1.7745,-1.7747,-1.7844,-1.7857,-1.7844,-1.7873,-1.7852,-1.7875,-1.7885,-1.7891,-1.7917,-1.7967,-1.8001,-1.8048,-1.8166,-1.817,-1.8222,-1.824,-1.8255,-1.8269,-1.8332,-1.8356,-1.8104,-1.8104,-1.8104,0,0,-1.7762,-1.7771,-1.7809,-1.7863,-1.7879,-1.7938,-1.7853,-1.7918,-1.7962,-1.7895,-1.7982,-1.7987,-1.8013,-1.8118,-1.8165,-1.8128,-1.8339,-1.8269,-1.8281,-1.8286,-1.8346,-1.837,-1.8391,-1.8111,-1.811,-1.8109,0,0,-1.7922,-1.7935,-1.8017,-1.8033,-1.8058,-1.8048,-1.8067,-1.8082,-1.8082,-1.8168,-1.8119,-1.817,-1.8258,-1.8278,-1.83,-1.8466,-1.8427,-1.8481,-1.8577,-1.8639,-1.8659,-1.8677,-1.8737,-1.8759,-1.8494,-1.8495,-1.8495,0,-1.8009,-1.8095,-1.8063,-1.8132,-1.8158,-1.8098,-1.8181,-1.8199,-1.8238,-1.8257,-1.8214,-1.8322,-1.8335,-1.8445,-1.8485,-1.8504,-1.8526,-1.8481,-1.8659,-1.8676,-1.8692,-1.8749,-1.8772,-1.8501,-1.85,-1.85,-1.8499,0,-1.82,-1.826,-1.8323,-1.8361,-1.8393,-1.8469,-1.8449,-1.8486,-1.8461,-1.8455,-1.8543,-1.8556,-1.8604,-1.8628,-1.8605,-1.8734,-1.8711,-1.8664,-1.8589,-1.8723,-1.8776,-1.8798,-1.8511,-1.8508,-1.8506,-1.8505,0,0,-1.8428,-1.8445,-1.8469,-1.8485,-1.8506,-1.8552,-1.8624,-1.867,-1.8702,-1.873,-1.8791,-1.8865,-1.8821,-1.8846,-1.8824,-1.8878,-1.901,-1.8824,-1.8824,-1.886,-1.9154,-1.9191,-1.9217,-1.8983,-1.8987,-1.899,-1.9152,0,-1.8589,-1.8713,-1.8686,-1.8809,-1.8864,-1.8807,-1.887,-1.889,-1.8886,-1.8932,-1.8928,-1.8981,-1.8919,-1.8934,-1.8984,-1.8983,-1.9069,-1.897,-1.904,-1.9043,-1.9039,-1.9244,-1.9284,-1.9437,-1.9173,-1.9176,-1.9179,0,-1.8795,-1.8829,-1.8957,-1.8968,-1.899,-1.9048,-1.9087,-1.9131,-1.9152,-1.9146,-1.9172,-1.9139,-1.9211,-1.9132,-1.9231,-1.9165,-1.9191,-1.9194,-1.92,-1.9208,-1.9121,-1.926,-1.9485,-1.9509,-1.9211,-1.9208,-1.9206,0,-1.895,-1.9028,-1.9115,-1.913,-1.9145,-1.9186,-1.9195,-1.9211,-1.924,-1.9274,-1.9292,-1.9334,-1.9358,-1.9391,-1.937,-1.9315,-1.9473,-1.9393,-1.9471,-1.9472,-1.9509,-1.9508,-1.9744,-1.9522,-1.9522,-1.9521,-1.9521,0,-1.9135,-1.9216,-1.9185,-1.9239,-1.9327,-1.9294,-1.9383,-1.9385,-1.9399,-1.9452,-1.9404,-1.9455,-1.9423,-1.9472,-1.9455,-1.954,-1.9551,-1.9548,-1.9543,-1.9554,-1.9555,-1.9573,-1.9563,-1.9527,-1.9526,-1.9525,-1.9524,0,-1.9325,-1.9307,-1.9398,-1.9403,-1.9407,-1.9472,-1.9477,-1.9527,-1.9518,-1.9586,-1.96,-1.9587,-1.9641,-1.9622,-1.968,-1.9669,-1.9778,-1.9758,-1.9771,-1.9767,-1.9846,-1.984,-2.0105,-2.0139,-1.9893,-1.9895,-1.9897,0,-1.9446,-1.9506,-1.9518,-1.9549,-1.9561,-1.9612,-1.9641,-1.961,-1.9642,-1.9669,-1.9716,-1.9765,-1.9804,-1.9893,-1.9889,-1.9933,-1.9915,-2.0004,-1.9922,-1.993,-1.9919,-1.9916,-1.9923,-2.0022,-2.0025,-2.0028,-2.0029,0,-1.9662,-1.9649,-1.9692,-1.9732,-1.9767,-1.9797,-1.9822,-1.9851,-1.9821,-1.9859,-1.9914,-1.9943,-2.0001,-2.0052,-2.0091,-2.0099,-2.0061,-2.0055,-2.0076,-2.0089,-2.0095,-2.0094,-1.9819,-2.005,-2.0048,-2.0046,-2.0045,-2.0044,-1.9822,-1.9874,-1.9889,-1.9938,-1.9954,-1.9978,-2.0025,-2.0021,-2.0066,-2.0111,-2.0089,-2.0152,-2.017,-2.0218,-2.0232,-2.028,-2.0246,-2.0276,-2.0284,-2.0292,-2.0303,-2.0084,-2.0287,-2.0287,-2.0286,-2.0285,-2.0285,0,-2.0038,-2.0044,-2.0089,-2.0126,-2.0165,-2.0122,-2.0147,-2.0183,-2.0238,-2.0258,-2.0296,-2.0358,-2.0405,-2.0404,-2.0448,-2.0487,-2.0471,-2.05,-2.0498,-2.0501,-2.0331,-2.0309,-2.0513,-2.0513,-2.0513,-2.0513,-2.0513,-2.0513,-2.0155,-2.0239,-2.0229,-2.032,-2.0326,-2.0387,-2.0405,-2.0427,-2.0442,-2.0514,-2.0553,-2.055,-2.0561,-2.0605,-2.0647,-2.0645,-2.0665,-2.0702,-2.0694,-2.0536,-2.0513,-2.0492,-2.0471,-2.0706,-2.0706,-2.086,-2.0862,-2.0863]},{"header":{"parameterUnit":"m.s-1","parameterCategory":1,"la1":30.2991,"la2":30.254,"lo1":-89.0895,"lo2":-89.0444,"dy":0.0017,"dx":0.0017,"nx":28,"ny":28,"refTime":"2023-10-07T03:00:00:Z","depth":0,"parameterNumber":3,"parameterNumberName":"V-component_of_WINDS"},"data":[0,0,0,0,0,0,0,0,0,0,0,0,0,0,0,0,0,0,0,0,0,0,0,0,0,0,0,0,0,0,0,0,0,0,0,0,0,0,0,0,0,0,0,0,0,0,0,0,0,0,0,0,0,0,0,0,0,0,-7.2488,-7.2489,0,-7.2613,-7.2614,-7.2616,-7.25,-7.2495,-7.2491,-7.2486,-7.2608,-7.2616,-7.2623,0,0,0,0,0,0,0,0,0,0,0,0,0,-7.2142,-7.2149,-7.2487,-7.2489,-7.2491,-7.2613,-7.2614,-7.2616,-7.2501,-7.2495,-7.249,-7.2484,-7.2606,-7.2615,-7.2624,0,0,0,0,0,0,0,0,0,0,0,0,0,-7.2282,-7.2151,-7.2487,-7.2448,-7.2446,-7.2612,-7.2614,-7.2616,-7.2502,-7.2495,-7.2488,-7.2482,-7.2603,-7.2614,-7.2625,-7.2834,0,0,-7.266,-7.2665,0,0,0,0,0,0,0,0,-7.2274,-7.2295,-7.2452,-7.2451,-7.2449,-7.2534,-7.2537,-7.2689,-7.2504,-7.2481,-7.2486,-7.2478,-7.2589,-7.2601,-7.2639,-7.284,-7.2845,-7.2661,-7.2668,-7.2673,-7.2676,0,0,0,0,0,0,0,-7.2264,-7.2289,-7.2537,-7.2455,-7.2453,-7.2422,-7.2434,-7.2565,-7.2572,-7.2482,-7.2474,-7.2491,-7.2586,-7.2629,-7.2641,-7.2847,-7.266,-7.2671,-7.2678,-7.2682,-7.3224,-7.3231,0,0,0,0,0,0,-7.226,-7.2281,-7.2533,-7.2541,-7.2343,-7.2434,-7.2448,-7.2513,-7.257,-7.2572,-7.2497,-7.2485,-7.2613,-7.2628,-7.2645,-7.2894,-7.2672,-7.2683,-7.269,-7.3217,-7.3226,-7.3234,0,0,0,0,0,0,-7.2253,-7.2283,-7.2528,-7.2409,-7.2438,-7.2447,-7.2522,-7.252,-7.2562,-7.2581,-7.2581,-7.2539,-7.2608,-7.2629,-7.2788,-7.2896,-7.2688,-7.2699,-7.3208,-7.322,-7.323,-7.3392,0,0,0,0,0,0,-7.2243,-7.2282,-7.2363,-7.2412,-7.2445,-7.2672,-7.2529,-7.2527,-7.2583,-7.2569,-7.2621,-7.2623,-7.2604,-7.2772,-7.28,-7.2908,-7.2707,-7.3198,-7.3213,-7.3226,-7.3377,-7.3408,-7.3434,0,0,0,0,0,-7.2232,-7.2403,-7.2368,-7.2399,-7.2547,-7.2678,-7.2697,-7.2673,-7.2592,-7.2673,-7.2685,-7.2621,-7.288,-7.2789,-7.2819,-7.2933,-7.3191,-7.3209,-7.3225,-7.3365,-7.3402,-7.3433,0,0,0,0,0,0,-7.2365,-7.2408,-7.237,-7.2563,-7.2618,-7.2658,-7.276,-7.2713,-7.2791,-7.2774,-7.2739,-7.2752,-7.2921,-7.2942,-7.2841,-7.3138,-7.3022,-7.3046,-7.3118,-7.3153,-7.3181,-7.3172,-7.2717,0,0,0,0,0,-7.2417,-7.2522,-7.2553,-7.272,-7.275,-7.2751,-7.2807,-7.2784,-7.2839,-7.2861,-7.2884,-7.2938,-7.3031,-7.3093,-7.318,-7.338,-7.3389,-7.3472,-7.35,-7.3524,-7.3545,-7.3651,-7.3688,-7.329,-7.329,-7.329,0,0,-7.2525,-7.2561,-7.263,-7.2748,-7.2788,-7.2895,-7.2771,-7.289,-7.2969,-7.2878,-7.303,-7.305,-7.3107,-7.3288,-7.3368,-7.3311,-7.3656,-7.3545,-7.3564,-7.3572,-7.3672,-7.371,-7.3743,-7.3302,-7.33,-7.3298,0,0,-7.2776,-7.2816,-7.2959,-7.3002,-7.3064,-7.3064,-7.3098,-7.3146,-7.3156,-7.3309,-7.3243,-7.3334,-7.3496,-7.3539,-7.3583,-7.385,-7.3795,-7.3879,-7.4027,-7.4131,-7.4162,-7.419,-7.4285,-7.4319,-7.39,-7.39,-7.3901,0,-7.2902,-7.3064,-7.3037,-7.3162,-7.3215,-7.314,-7.3283,-7.3325,-7.3412,-7.3449,-7.3384,-7.3585,-7.3618,-7.3807,-7.3873,-7.391,-7.3947,-7.3873,-7.416,-7.4188,-7.4213,-7.4303,-7.4339,-7.391,-7.3909,-7.3908,-7.3907,0,-7.3215,-7.3328,-7.3436,-7.3524,-7.3589,-7.3722,-7.3713,-7.3782,-7.3753,-7.3758,-7.3914,-7.3951,-7.4044,-7.4087,-7.4059,-7.4272,-7.4234,-7.4166,-7.4049,-7.4261,-7.4345,-7.438,-7.3924,-7.3921,-7.3918,-7.3915,0,0,-7.3555,-7.3627,-7.3667,-7.3706,-7.3769,-7.3855,-7.3983,-7.4076,-7.4135,-7.4197,-7.4303,-7.4441,-7.4378,-7.4427,-7.4403,-7.4495,-7.4703,-7.4414,-7.4415,-7.4466,-7.4939,-7.4991,-7.5031,-7.4667,-7.4673,-7.4678,-7.4934,0,-7.3809,-7.4036,-7.4015,-7.4228,-7.4332,-7.4261,-7.4372,-7.4422,-7.4431,-7.4517,-7.4524,-7.4623,-7.4532,-7.4561,-7.4649,-7.466,-7.4798,-7.4641,-7.4763,-7.4768,-7.4752,-7.5075,-7.513,-7.537,-7.4967,-7.4972,-7.4976,0,-7.4136,-7.4212,-7.4437,-7.4484,-7.4527,-7.4628,-7.4711,-7.4795,-7.4849,-7.4848,-7.4904,-7.4864,-7.499,-7.4871,-7.5044,-7.4938,-7.4986,-7.4999,-7.5008,-7.5018,-7.4885,-7.5094,-7.5446,-7.5482,-7.5028,-7.5024,-7.502,0,-7.4361,-7.4519,-7.4674,-7.4709,-7.4769,-7.4841,-7.4869,-7.4916,-7.4973,-7.5044,-7.508,-7.5165,-7.5211,-7.5276,-7.5259,-7.5174,-7.5437,-7.5316,-7.5438,-7.5439,-7.5497,-7.5493,-7.5861,-7.5528,-7.5528,-7.5527,-7.5526,0,-7.4647,-7.4787,-7.4776,-7.4872,-7.5026,-7.4999,-7.5151,-7.5169,-7.5212,-7.5308,-7.5251,-7.5341,-7.5314,-7.5402,-7.5389,-7.5534,-7.5556,-7.5557,-7.5552,-7.5563,-7.5563,-7.5594,-7.5577,-7.5537,-7.5535,-7.5533,-7.5531,0,-7.4925,-7.4923,-7.5087,-7.513,-7.5144,-7.5256,-7.5291,-7.538,-7.5383,-7.5505,-7.5531,-7.5536,-7.5637,-7.5627,-7.574,-7.5731,-7.5911,-7.5886,-7.5894,-7.5888,-7.6011,-7.6,-7.6412,-7.6465,-7.6098,-7.6101,-7.6104,0,-7.5108,-7.5214,-7.5269,-7.533,-7.5363,-7.5462,-7.552,-7.5497,-7.556,-7.5629,-7.5709,-7.5805,-7.5881,-7.6046,-7.6058,-7.6143,-7.612,-7.6258,-7.6132,-7.6139,-7.6121,-7.6116,-7.6125,-7.6283,-7.6287,-7.6291,-7.6294,0,-7.5432,-7.5426,-7.5513,-7.5601,-7.5672,-7.5739,-7.58,-7.5852,-7.5835,-7.5907,-7.6012,-7.6071,-7.6187,-7.6283,-7.6364,-7.6388,-7.6339,-7.6333,-7.6366,-7.6378,-7.6378,-7.6379,-7.5962,-7.6324,-7.6321,-7.6319,-7.6317,-7.6316,-7.5668,-7.5759,-7.5812,-7.5911,-7.5954,-7.6012,-7.6098,-7.6112,-7.6199,-7.6294,-7.6274,-7.6391,-7.644,-7.6544,-7.6577,-7.6667,-7.6616,-7.6664,-7.6676,-7.6688,-7.6702,-7.6364,-7.6681,-7.668,-7.6679,-7.6679,-7.6678,0,-7.5989,-7.602,-7.6111,-7.6199,-7.6276,-7.6224,-7.6288,-7.6355,-7.646,-7.6511,-7.6587,-7.6706,-7.6799,-7.6818,-7.6906,-7.6974,-7.6953,-7.6997,-7.6992,-7.6999,-7.6742,-7.6705,-7.7013,-7.7013,-7.7013,-7.7013,-7.7013,-7.7013,-7.6166,-7.6317,-7.6317,-7.6489,-7.6517,-7.6633,-7.6674,-7.6727,-7.6767,-7.6904,-7.6981,-7.6994,-7.7032,-7.7122,-7.7204,-7.7206,-7.7241,-7.7296,-7.729,-7.705,-7.7017,-7.6985,-7.695,-7.7303,-7.7304,-7.7538,-7.754,-7.7542]}]]